{"data":{"norad_id":62046,"epoch":"2026-09-21T06:38:23.449920Z","epoch_age_seconds":118424,"freshness":"FRESH","line1":"1 62046U 24216Q   26264.27666030  .00008214  00000+0  30766-3 0  9992","line2":"2 62046  42.9997 231.2709 0000986 277.5795  82.4944 15.27582949103792","mean_motion":15.27582949,"eccentricity":9.86e-5,"inclination_deg":42.9997,"raan_deg":231.2709,"arg_perigee_deg":277.5795,"mean_anomaly_deg":82.4944,"bstar":0.00030766,"rev_number":10379,"period_min":94.266566731624,"perigee_km":482.36375360857,"apogee_km":483.71677776536,"semimajor_km":6861.177265687,"source":"CELESTRAK","updated_at":"2026-09-22T09:00:49.489063Z"}}